Weather in Bolshaya Tayaba

Russia / Chuvash Republic     55°14′32″N   47°55′07″E
temp.,
°C
wind,
m/s
gust,
m/s
humid.,
%
clouds,
%
prec.,
mm/h
press.,
hPa
HPBL,
m
16 june, wed
wed1600:00+17e398269 0.1 1010142
03:00+17e399486 0.1 1009172
06:00+19ese3983100 0.0 1008236
09:00+24se486178 0.0 1007571
12:00+26sse34554 0.0 10061053
15:00+27s33590 0.0 10051150
18:00+24w347397 1.9 100576
21:00+19nnw814915 2.8 1007439
17 june, thu
thu1700:00+18n7128982 0.1 1010696
03:00+14nnw613920 0.1 1013354
06:00+15nnw512840 0.0 1015414
09:00+19nnw68635 0.0 1016916
12:00+20nnw78530 0.0 10171565
15:00+20nw69550 0.0 10181700
18:00+18nw6116689 0.0 1019506
21:00+18n6125159 0.0 1021553
18 june, fri
fri1800:00+12n48740 0.0 1023142
03:00+9nnw49775 0.0 1025149
06:00+12n48720 0.0 1026273
09:00+16n575721 0.0 1027934
12:00+19n56525 0.0 10271401
15:00+20nnw45485 0.0 10261488
18:00+19wnw2366100 0.0 1026128
21:00+15w226984 0.0 102619
19 june, sat
sat1900:00+13wsw337838 0.0 102742
03:00+12w35863 0.0 102786
06:00+16w47815 0.0 1027215
09:00+21w576911 0.0 1026548
12:00+24w57595 0.0 10251243
15:00+25nw68615 0.0 10241729
18:00+24wnw59745 0.0 1023505
21:00+19w49905 0.0 1023163
20 june, sun
sun2000:00+18wnw39930 0.0 1024156
03:00+17wnw48930 0.0 1024126
06:00+20nw47840 0.0 1025206
09:00+24wnw45700 0.0 1024614
12:00+27nw45611 0.0 10241357
15:00+27nw45582 0.0 10231632
18:00+25wnw35730 0.0 1023296
21:00+21wnw33905 0.0 102342